[[{"header":{"parameterUnit":"m.s-1","parameterCategory":2,"la1":30.2991,"la2":30.254,"lo1":-89.0895,"lo2":-89.0444,"dy":0.0017,"dx":0.0017,"nx":28,"ny":28,"refTime":"2023-10-10T09:00:00:Z","depth":"0","parameterNumber":2,"parameterNumberName":"U-component_of_CURRENTS"},"data":[0,0,0,0,0,0,0,0,0,0,0,0,0,0,0,0,0,0,0,0,0,0,0,0,0,0,0,0,0,0,0,0,0,0,0,0,0,0,0,0,0,0,0,0,0,0,0,0,0,0,0,0,0,0,0,0,0,0,0.2251,0.2249,0,0.2051,0.2048,0.2045,0.1856,0.1854,0.1852,0.1851,0.172,0.1719,0.1717,0,0,0,0,0,0,0,0,0,0,0,0,0,0.2366,0.2365,0.2251,0.2249,0.2247,0.2051,0.2048,0.2045,0.1856,0.1854,0.1852,0.185,0.1721,0.1719,0.1717,0,0,0,0,0,0,0,0,0,0,0,0,0,0.2252,0.2365,0.2251,0.2133,0.2121,0.2052,0.2048,0.2044,0.1857,0.1854,0.1851,0.1849,0.1722,0.1719,0.1717,0.1757,0,0,0.1709,0.1708,0,0,0,0,0,0,0,0,0.2258,0.2247,0.2153,0.2141,0.2128,0.198,0.2041,0.1953,0.1858,0.1952,0.185,0.1847,0.182,0.1809,0.1769,0.1751,0.1746,0.1709,0.1707,0.1706,0.1705,0,0,0,0,0,0,0,0.2267,0.2254,0.2166,0.2151,0.2136,0.2055,0.2036,0.2022,0.1901,0.1943,0.193,0.1918,0.1812,0.1771,0.1765,0.1744,0.1709,0.1706,0.1705,0.1704,0.1807,0.1811,0,0,0,0,0,0,0.2311,0.2262,0.2173,0.2161,0.2194,0.2057,0.2035,0.2026,0.1899,0.1878,0.192,0.191,0.1777,0.1768,0.176,0.1905,0.1706,0.1704,0.1702,0.1803,0.1808,0.1813,0,0,0,0,0,0,0.2314,0.2305,0.2181,0.221,0.219,0.2059,0.205,0.2024,0.1989,0.1882,0.186,0.1914,0.1775,0.1763,0.1777,0.1895,0.1702,0.17,0.1798,0.1804,0.181,0.213,0,0,0,0,0,0,0.2319,0.2308,0.2324,0.2214,0.219,0.2207,0.2052,0.2022,0.1988,0.1972,0.1871,0.1853,0.1771,0.1782,0.1775,0.1888,0.1698,0.1792,0.1801,0.1808,0.2114,0.2147,0.2174,0,0,0,0,0,0.2323,0.2387,0.2326,0.2316,0.2215,0.2212,0.2195,0.2085,0.1991,0.203,0.1937,0.1857,0.1827,0.1784,0.1774,0.1889,0.1788,0.1798,0.1808,0.2101,0.214,0.2174,0,0,0,0,0,0,0.2469,0.237,0.2302,0.2335,0.23,0.2183,0.2199,0.2114,0.2063,0.2036,0.1908,0.1891,0.1964,0.1873,0.1827,0.1939,0.1798,0.1806,0.2024,0.206,0.209,0.2148,0.1696,0,0,0,0,0,0.2505,0.2504,0.2421,0.245,0.2438,0.2316,0.2295,0.2228,0.2163,0.2132,0.2057,0.199,0.1997,0.1982,0.1971,0.202,0.1985,0.2086,0.2116,0.2143,0.2183,0.224,0.228,0.1844,0.1844,0.1844,0,0,0.2569,0.2514,0.2514,0.2478,0.2421,0.244,0.2297,0.23,0.2321,0.2136,0.2152,0.2114,0.204,0.2112,0.2133,0.2044,0.2252,0.2155,0.2178,0.2204,0.2254,0.2297,0.2335,0.1851,0.185,0.1849,0,0,0.2685,0.2652,0.2672,0.2666,0.2614,0.256,0.2576,0.2489,0.2463,0.2489,0.2375,0.2423,0.2366,0.2372,0.2358,0.2551,0.2432,0.2515,0.2696,0.2752,0.2789,0.2821,0.2853,0.2885,0.2504,0.2505,0.2506,0,0.2754,0.2749,0.2696,0.2725,0.2709,0.2627,0.2654,0.2662,0.2594,0.258,0.2547,0.2532,0.2521,0.2596,0.2685,0.2636,0.26,0.2568,0.2797,0.2827,0.2855,0.2878,0.291,0.2522,0.252,0.2518,0.2516,0,0.2857,0.2869,0.2904,0.2882,0.2898,0.2924,0.2911,0.2935,0.2889,0.2855,0.293,0.2928,0.2886,0.294,0.2889,0.3062,0.2955,0.2855,0.2715,0.2919,0.2929,0.2957,0.2545,0.2539,0.2534,0.253,0,0,0.292,0.2952,0.2954,0.2933,0.2961,0.2958,0.3067,0.3078,0.3071,0.314,0.3143,0.3303,0.3245,0.3233,0.3184,0.3295,0.3528,0.3173,0.3168,0.3223,0.3618,0.3536,0.3555,0.3434,0.344,0.3445,0.3554,0,0.2974,0.3024,0.3041,0.3091,0.3092,0.3095,0.3166,0.3196,0.3206,0.3219,0.3309,0.332,0.3363,0.3334,0.3478,0.3469,0.3608,0.3506,0.3394,0.3392,0.3311,0.3589,0.3484,0.3572,0.358,0.3584,0.3587,0,0.3009,0.3024,0.3073,0.3082,0.3083,0.313,0.3135,0.3193,0.3264,0.3275,0.3355,0.3345,0.3531,0.3521,0.3733,0.3633,0.3694,0.3738,0.3738,0.3572,0.3362,0.3362,0.3619,0.3489,0.3627,0.3624,0.3621,0,0.2954,0.302,0.303,0.3048,0.3094,0.3111,0.313,0.3188,0.3201,0.3286,0.3287,0.3445,0.3482,0.3643,0.3766,0.373,0.3968,0.3882,0.3893,0.3882,0.3734,0.3701,0.3873,0.4106,0.4105,0.4105,0.4105,0,0.2947,0.2949,0.2996,0.3,0.2991,0.3045,0.3045,0.3092,0.3148,0.3172,0.3279,0.333,0.3521,0.3639,0.378,0.3924,0.3968,0.4016,0.3948,0.384,0.3817,0.3638,0.3549,0.4109,0.4108,0.4107,0.4107,0,0.2875,0.2918,0.2914,0.2955,0.296,0.2945,0.2978,0.2984,0.3049,0.3087,0.3118,0.3255,0.3422,0.359,0.3816,0.3895,0.3942,0.4089,0.3948,0.3866,0.3744,0.3675,0.3612,0.3527,0.4141,0.414,0.4139,0,0.2841,0.2832,0.2852,0.2844,0.2859,0.2857,0.2861,0.2926,0.2949,0.3052,0.3072,0.3215,0.3319,0.3591,0.3789,0.4002,0.3893,0.3994,0.3974,0.3816,0.3688,0.35,0.3419,0.3904,0.3902,0.39,0.3898,0,0.276,0.2764,0.2767,0.275,0.2746,0.2739,0.276,0.2763,0.2857,0.2896,0.2976,0.3058,0.3312,0.3474,0.3716,0.3854,0.3771,0.3956,0.3845,0.3616,0.3369,0.3221,0.3722,0.388,0.3882,0.3883,0.3884,0.3885,0.2685,0.2663,0.2666,0.2642,0.2634,0.262,0.2601,0.2653,0.2671,0.2741,0.2868,0.2974,0.3205,0.3539,0.3637,0.3686,0.3658,0.3647,0.3607,0.3454,0.3301,0.3769,0.3797,0.3798,0.3799,0.38,0.3801,0,0.2584,0.2579,0.2558,0.2528,0.2488,0.252,0.2528,0.2517,0.2529,0.2648,0.2724,0.292,0.3076,0.3264,0.3422,0.336,0.3254,0.3268,0.3013,0.298,0.3466,0.3386,0.3258,0.3259,0.3259,0.3259,0.3259,0.3259,0.2533,0.2487,0.2482,0.2391,0.237,0.2314,0.2309,0.2317,0.2384,0.245,0.2545,0.2659,0.2832,0.2989,0.3,0.2988,0.2784,0.2656,0.2632,0.2994,0.3026,0.3056,0.2965,0.2752,0.2751,0.2056,0.205,0.2046]},{"header":{"parameterUnit":"m.s-1","parameterCategory":2,"la1":30.2991,"la2":30.254,"lo1":-89.0895,"lo2":-89.0444,"dy":0.0017,"dx":0.0017,"nx":28,"ny":28,"refTime":"2023-10-10T09:00:00:Z","depth":"0","parameterNumber":3,"parameterNumberName":"V-component_of_CURRENTS"},"data":[0,0,0,0,0,0,0,0,0,0,0,0,0,0,0,0,0,0,0,0,0,0,0,0,0,0,0,0,0,0,0,0,0,0,0,0,0,0,0,0,0,0,0,0,0,0,0,0,0,0,0,0,0,0,0,0,0,0,0.0294,0.0294,0,0.0251,0.025,0.025,0.018,0.0178,0.0177,0.0176,0.0174,0.0175,0.0176,0,0,0,0,0,0,0,0,0,0,0,0,0,0.0337,0.0337,0.0294,0.0294,0.0293,0.0251,0.025,0.025,0.018,0.0178,0.0177,0.0175,0.0174,0.0175,0.0176,0,0,0,0,0,0,0,0,0,0,0,0,0,0.0309,0.0337,0.0294,0.0253,0.0249,0.0251,0.025,0.025,0.018,0.0178,0.0176,0.0174,0.0173,0.0175,0.0177,0.0227,0,0,0.0182,0.0183,0,0,0,0,0,0,0,0,0.0311,0.0308,0.0259,0.0256,0.0251,0.0218,0.0265,0.0244,0.0181,0.0207,0.0176,0.0173,0.0194,0.0194,0.019,0.0227,0.0227,0.0182,0.0183,0.0184,0.0185,0,0,0,0,0,0,0,0.0313,0.0309,0.0277,0.0259,0.0254,0.0243,0.0237,0.026,0.0213,0.0204,0.0199,0.0194,0.0192,0.0188,0.019,0.0227,0.0182,0.0184,0.0185,0.0186,0.0311,0.0313,0,0,0,0,0,0,0.0318,0.0311,0.0279,0.0276,0.0276,0.0244,0.0237,0.0231,0.0212,0.0206,0.0196,0.0191,0.0186,0.0188,0.0189,0.0294,0.0184,0.0186,0.0187,0.0308,0.0311,0.0314,0,0,0,0,0,0,0.032,0.0316,0.028,0.0292,0.0287,0.0245,0.0239,0.0231,0.0221,0.0205,0.02,0.0192,0.0185,0.0187,0.0222,0.0291,0.0186,0.0188,0.0306,0.0309,0.0312,0.0474,0,0,0,0,0,0,0.0321,0.0317,0.0327,0.0293,0.0286,0.0307,0.0241,0.0232,0.0221,0.0214,0.0201,0.0198,0.0183,0.022,0.0224,0.0292,0.0189,0.0303,0.0307,0.0311,0.0466,0.0482,0.0497,0,0,0,0,0,0.0323,0.0374,0.0328,0.0325,0.0298,0.0309,0.0307,0.027,0.0223,0.0246,0.0227,0.0198,0.0249,0.0224,0.0228,0.0298,0.0301,0.0306,0.0311,0.0459,0.0479,0.0496,0,0,0,0,0,0,0.0431,0.037,0.032,0.0355,0.0332,0.0298,0.0326,0.0277,0.0278,0.0271,0.0232,0.0232,0.0291,0.0267,0.0239,0.0342,0.0269,0.0275,0.038,0.0399,0.0414,0.0472,0.0191,0,0,0,0,0,0.0448,0.0446,0.0395,0.0423,0.0416,0.0361,0.036,0.0329,0.0316,0.0311,0.0301,0.0296,0.0319,0.0333,0.0349,0.041,0.0381,0.0453,0.0469,0.0482,0.0531,0.0542,0.0563,0.033,0.033,0.033,0,0,0.0498,0.0463,0.0465,0.0441,0.0419,0.0445,0.0358,0.0373,0.0405,0.0318,0.0376,0.0356,0.0346,0.0416,0.044,0.0403,0.0526,0.0489,0.0501,0.0543,0.055,0.0572,0.0593,0.0334,0.0333,0.0333,0,0,0.0598,0.0565,0.0588,0.0578,0.0547,0.0524,0.0527,0.0496,0.0496,0.0537,0.0486,0.052,0.0535,0.0562,0.057,0.0684,0.0607,0.066,0.0795,0.0804,0.0824,0.0842,0.0802,0.0814,0.0669,0.0669,0.0669,0,0.0655,0.0666,0.0608,0.0634,0.0642,0.0563,0.0608,0.0617,0.0604,0.0627,0.0583,0.0634,0.0627,0.0721,0.0759,0.0731,0.0683,0.0726,0.0827,0.0844,0.0859,0.0814,0.0826,0.0677,0.0677,0.0676,0.0675,0,0.0753,0.077,0.0801,0.0788,0.0804,0.0836,0.0822,0.0849,0.0825,0.0821,0.0896,0.0887,0.0912,0.0916,0.088,0.0984,0.0896,0.0844,0.0785,0.0893,0.0837,0.0847,0.069,0.0686,0.0684,0.0682,0,0,0.084,0.0858,0.0865,0.0874,0.088,0.0898,0.0983,0.1024,0.1067,0.1086,0.1154,0.1218,0.1178,0.1187,0.1139,0.1166,0.1224,0.1056,0.1053,0.1027,0.1195,0.1101,0.11,0.1165,0.1169,0.1172,0.1101,0,0.0919,0.0988,0.0987,0.107,0.1098,0.1086,0.1165,0.1201,0.1218,0.1273,0.1294,0.1335,0.1288,0.1282,0.1319,0.1242,0.1261,0.1246,0.1088,0.1084,0.0997,0.1115,0.1076,0.1008,0.1109,0.1111,0.1112,0,0.0989,0.1022,0.1108,0.1168,0.1184,0.1236,0.1313,0.1373,0.1447,0.1462,0.1521,0.1494,0.1565,0.1481,0.1474,0.1447,0.1358,0.1297,0.1291,0.1168,0.1011,0.0922,0.102,0.0835,0.1125,0.1124,0.1123,0,0.1017,0.1103,0.1165,0.1186,0.1255,0.1308,0.1352,0.1428,0.1481,0.1566,0.1594,0.1656,0.1655,0.1617,0.1509,0.1475,0.1459,0.1381,0.1222,0.121,0.1138,0.1115,0.1059,0.1395,0.1395,0.1395,0.1395,0,0.107,0.112,0.1179,0.1208,0.1296,0.1339,0.1435,0.149,0.1575,0.1644,0.1675,0.1723,0.1685,0.1656,0.156,0.1431,0.1496,0.1292,0.1218,0.1185,0.1169,0.0968,0.0876,0.1392,0.1393,0.1393,0.1394,0,0.1071,0.1113,0.1179,0.1267,0.1299,0.1353,0.1455,0.1525,0.1598,0.1686,0.1711,0.1767,0.1736,0.1672,0.1585,0.1467,0.1256,0.1291,0.1236,0.116,0.0827,0.0745,0.0664,0.0586,0.1114,0.1111,0.111,0,0.1071,0.1103,0.1195,0.1235,0.1273,0.1357,0.1422,0.152,0.1593,0.1706,0.1751,0.1759,0.1786,0.164,0.1457,0.1291,0.1163,0.1097,0.1063,0.085,0.0704,0.0675,0.0614,0.1004,0.1002,0.1,0.0998,0,0.1064,0.1091,0.1143,0.1226,0.1294,0.138,0.1479,0.1535,0.1652,0.1729,0.1811,0.1845,0.1719,0.1572,0.1345,0.1204,0.0964,0.1042,0.0864,0.0679,0.0607,0.048,0.0963,0.0979,0.0981,0.0982,0.0983,0.0984,0.1041,0.1072,0.1139,0.1219,0.13,0.1398,0.1462,0.1567,0.1675,0.1809,0.1846,0.1944,0.1706,0.141,0.1178,0.0716,0.0781,0.0581,0.0513,0.0514,0.0423,0.0846,0.0749,0.075,0.075,0.075,0.0751,0,0.1017,0.1066,0.1135,0.1233,0.1313,0.1371,0.1502,0.1573,0.1683,0.1851,0.1941,0.1938,0.1579,0.1229,0.0629,0.0278,0.0191,0.0096,0.0059,0.0032,0.0437,0.0414,0.019,0.019,0.019,0.019,0.019,0.0191,0.1008,0.106,0.1108,0.1222,0.1295,0.1404,0.1475,0.1585,0.173,0.1933,0.2076,0.2192,0.1902,0.0795,0.0014,-0.0166,-0.0367,-0.0419,-0.0505,-0.0248,-0.0207,-0.0168,-0.021,-0.0562,-0.0563,-0.0865,-0.0869,-0.0871]}],[{"header":{"parameterUnit":"m.s-1","parameterCategory":2,"la1":30.2991,"la2":30.254,"lo1":-89.0895,"lo2":-89.0444,"dy":0.0017,"dx":0.0017,"nx":28,"ny":28,"refTime":"2023-10-10T09:00:00:Z","depth":"2","parameterNumber":2,"parameterNumberName":"U-component_of_CURRENTS"},"data":[0,0,0,0,0,0,0,0,0,0,0,0,0,0,0,0,0,0,0,0,0,0,0,0,0,0,0,0,0,0,0,0,0,0,0,0,0,0,0,0,0,0,0,0,0,0,0,0,0,0,0,0,0,0,0,0,0,0,0.1469,0.147,0,0.1508,0.1508,0.1509,0.1528,0.1528,0.1528,0.1528,0.1556,0.1557,0.1558,0,0,0,0,0,0,0,0,0,0,0,0,0,0.14,0.1401,0.1469,0.147,0.147,0.1508,0.1508,0.1509,0.1528,0.1528,0.1528,0.1528,0.1556,0.1557,0.1558,0,0,0,0,0,0,0,0,0,0,0,0,0,0.1433,0.1401,0.1469,0.1485,0.1487,0.1508,0.1508,0.1509,0.1528,0.1528,0.1528,0.1528,0.1556,0.1557,0.1558,0.1564,0,0,0.1561,0.1562,0,0,0,0,0,0,0,0,0.1431,0.1435,0.1482,0.1484,0.1486,0.1513,0.1494,0.1527,0.1528,0.1512,0.1528,0.1528,0.1541,0.1544,0.155,0.1565,0.1566,0.1561,0.1562,0.1563,0.1563,0,0,0,0,0,0,0,0.1429,0.1434,0.1484,0.1483,0.1485,0.1485,0.149,0.15,0.1525,0.1513,0.1515,0.152,0.1542,0.1549,0.1551,0.1567,0.1561,0.1562,0.1563,0.1563,0.157,0.157,0,0,0,0,0,0,0.1425,0.1432,0.1483,0.1486,0.1458,0.1487,0.1492,0.1504,0.1526,0.1529,0.152,0.152,0.1547,0.155,0.1552,0.1588,0.1563,0.1564,0.1564,0.157,0.157,0.1569,0,0,0,0,0,0,0.1424,0.143,0.1482,0.1459,0.1466,0.1488,0.1501,0.1505,0.1508,0.153,0.1534,0.1518,0.1548,0.1551,0.1549,0.1588,0.1564,0.1565,0.1571,0.157,0.157,0.1641,0,0,0,0,0,0,0.1422,0.1429,0.1434,0.1459,0.1467,0.1485,0.1501,0.1506,0.1511,0.1512,0.153,0.1533,0.1548,0.1547,0.155,0.1589,0.1566,0.1572,0.1571,0.157,0.1639,0.1643,0.1646,0,0,0,0,0,0.1419,0.1419,0.1435,0.144,0.1474,0.1485,0.1488,0.1504,0.1511,0.1507,0.1516,0.1532,0.1544,0.1547,0.1551,0.1591,0.1572,0.1571,0.157,0.1638,0.1642,0.1646,0,0,0,0,0,0,0.1378,0.1422,0.1439,0.145,0.1465,0.1488,0.1489,0.1499,0.1504,0.151,0.1524,0.1527,0.1544,0.1539,0.1542,0.1583,0.1562,0.1561,0.1612,0.1616,0.1619,0.1614,0.1567,0,0,0,0,0,0.1376,0.1396,0.1427,0.1433,0.1444,0.1467,0.1472,0.1486,0.1497,0.15,0.1515,0.1527,0.1543,0.1554,0.156,0.1581,0.159,0.1604,0.1608,0.1611,0.1604,0.1626,0.1632,0.1566,0.1566,0.1566,0,0,0.136,0.1387,0.1396,0.1427,0.1444,0.1459,0.147,0.1482,0.1494,0.1502,0.152,0.1536,0.1545,0.1574,0.1581,0.1578,0.1643,0.161,0.1613,0.1604,0.1626,0.1633,0.1639,0.1565,0.1565,0.1565,0,0,0.1343,0.1366,0.1383,0.1398,0.1429,0.1446,0.1447,0.1476,0.1489,0.1507,0.1522,0.1547,0.1568,0.1593,0.1605,0.162,0.1653,0.163,0.166,0.1682,0.1689,0.1695,0.176,0.1771,0.1641,0.1641,0.1641,0,0.133,0.1354,0.1382,0.1401,0.1417,0.1439,0.1455,0.1468,0.1491,0.1512,0.1514,0.1566,0.1579,0.1624,0.1639,0.1634,0.1663,0.1656,0.1691,0.1696,0.1701,0.1766,0.1777,0.1644,0.1644,0.1644,0.1643,0,0.1328,0.1349,0.1355,0.1398,0.1412,0.1425,0.1457,0.1476,0.1502,0.1527,0.1572,0.1594,0.1633,0.1648,0.1655,0.1704,0.1723,0.1693,0.1692,0.1713,0.178,0.179,0.1649,0.1648,0.1647,0.1646,0,0,0.1311,0.1352,0.1356,0.138,0.1417,0.1432,0.1459,0.1499,0.1539,0.1562,0.1618,0.1649,0.1681,0.1693,0.1718,0.1739,0.182,0.174,0.1739,0.1825,0.1914,0.1887,0.1896,0.1806,0.1807,0.1808,0.1965,0,0.131,0.1339,0.1365,0.1393,0.1412,0.1451,0.1479,0.1517,0.1564,0.1621,0.1651,0.1711,0.1693,0.1747,0.1761,0.1811,0.1843,0.1783,0.1861,0.1864,0.1853,0.1904,0.1665,0.1779,0.1975,0.1977,0.1978,0,0.1304,0.133,0.1358,0.1413,0.1429,0.1453,0.1529,0.1562,0.1636,0.1684,0.174,0.1774,0.1842,0.1809,0.1892,0.1862,0.1889,0.1907,0.1913,0.1862,0.1853,0.1777,0.1791,0.1996,0.1994,0.1993,0.1992,0,0.1278,0.1326,0.1351,0.1366,0.1429,0.1465,0.1509,0.1583,0.1631,0.1742,0.1796,0.1865,0.1927,0.1951,0.2003,0.1964,0.2086,0.2038,0.2034,0.2036,0.1829,0.1809,0.2068,0.2068,0.2068,0.2067,0.2067,0,0.1262,0.1285,0.1346,0.1361,0.1409,0.1465,0.1536,0.1599,0.1696,0.1765,0.1833,0.1903,0.196,0.2032,0.205,0.21,0.2133,0.2054,0.2067,0.1851,0.1832,0.1994,0.1984,0.2073,0.2072,0.2071,0.207,0,0.122,0.1257,0.1293,0.1368,0.1394,0.1434,0.1536,0.159,0.1696,0.1795,0.1837,0.196,0.208,0.2134,0.2219,0.2173,0.2218,0.2216,0.1989,0.197,0.2145,0.2136,0.2236,0.2236,0.2237,0.2237,0.2237,0,0.1197,0.121,0.1284,0.1308,0.1346,0.1414,0.1459,0.1576,0.1636,0.1822,0.1859,0.2022,0.2094,0.2227,0.219,0.2233,0.229,0.2051,0.1902,0.2156,0.2159,0.215,0.2141,0.1685,0.168,0.1677,0.1674,0,0.1156,0.1187,0.1215,0.1265,0.1315,0.1363,0.1443,0.1486,0.1636,0.1725,0.1862,0.1944,0.2056,0.2,0.2062,0.2034,0.2024,0.198,0.2304,0.1674,0.1646,0.1647,0.1653,0.1642,0.1645,0.1647,0.1649,0.165,0.1124,0.1133,0.1176,0.1219,0.1265,0.1305,0.1327,0.1416,0.1502,0.1598,0.1748,0.1794,0.1824,0.178,0.177,0.1748,0.1857,0.1758,0.1764,0.1776,0.1678,0.1651,0.1633,0.1636,0.1638,0.1641,0.1643,0,0.1087,0.1108,0.1132,0.1175,0.1188,0.1249,0.1304,0.13,0.1366,0.1447,0.1528,0.141,0.1398,0.1481,0.1356,0.1357,0.1281,0.1349,0.1225,0.1256,0.1284,0.1158,0.0977,0.0976,0.0975,0.0974,0,0,0.1068,0.1074,0.1085,0.1089,0.1123,0.1129,0.1147,0.1143,0.1165,0.1136,0.1138,0.1239,0.1349,0.1127,0.1109,0.1038,0.1133,0.0987,0.1503,0.1382,0.1408,0.149,0.1328,0,0,0,0,0]},{"header":{"parameterUnit":"m.s-1","parameterCategory":2,"la1":30.2991,"la2":30.254,"lo1":-89.0895,"lo2":-89.0444,"dy":0.0017,"dx":0.0017,"nx":28,"ny":28,"refTime":"2023-10-10T09:00:00:Z","depth":"2","parameterNumber":3,"parameterNumberName":"V-component_of_CURRENTS"},"data":[0,0,0,0,0,0,0,0,0,0,0,0,0,0,0,0,0,0,0,0,0,0,0,0,0,0,0,0,0,0,0,0,0,0,0,0,0,0,0,0,0,0,0,0,0,0,0,0,0,0,0,0,0,0,0,0,0,0,-0.0409,-0.0408,0,-0.035,-0.035,-0.0349,-0.0322,-0.0322,-0.0322,-0.0322,-0.0358,-0.0359,-0.036,0,0,0,0,0,0,0,0,0,0,0,0,0,-0.0445,-0.0445,-0.0409,-0.0408,-0.0407,-0.035,-0.035,-0.0349,-0.0322,-0.0322,-0.0322,-0.0322,-0.0358,-0.0359,-0.036,0,0,0,0,0,0,0,0,0,0,0,0,0,-0.0412,-0.0445,-0.0409,-0.0387,-0.0385,-0.0351,-0.035,-0.0349,-0.0322,-0.0322,-0.0322,-0.0323,-0.0357,-0.0359,-0.036,-0.0366,0,0,-0.0364,-0.0365,0,0,0,0,0,0,0,0,-0.0414,-0.0411,-0.0391,-0.0389,-0.0386,-0.0344,-0.0375,-0.0359,-0.0322,-0.0346,-0.0322,-0.0323,-0.0362,-0.0363,-0.035,-0.0368,-0.037,-0.0364,-0.0365,-0.0366,-0.0366,0,0,0,0,0,0,0,-0.0417,-0.0413,-0.0386,-0.039,-0.0387,-0.0363,-0.0359,-0.0371,-0.0356,-0.0344,-0.0342,-0.0335,-0.0361,-0.0349,-0.0351,-0.037,-0.0364,-0.0365,-0.0366,-0.0367,-0.0401,-0.0401,0,0,0,0,0,0,-0.0427,-0.0416,-0.0387,-0.0384,-0.0401,-0.0362,-0.0357,-0.0357,-0.0354,-0.0352,-0.0335,-0.0334,-0.0347,-0.035,-0.0353,-0.0368,-0.0366,-0.0367,-0.0368,-0.0401,-0.0401,-0.0401,0,0,0,0,0,0,-0.0428,-0.0425,-0.039,-0.0398,-0.0392,-0.0362,-0.0361,-0.0356,-0.0349,-0.0346,-0.0347,-0.0335,-0.0347,-0.0351,-0.0359,-0.0369,-0.0367,-0.0369,-0.04,-0.0401,-0.0401,-0.0395,0,0,0,0,0,0,-0.0429,-0.0426,-0.0432,-0.0399,-0.0392,-0.0378,-0.0361,-0.0355,-0.0345,-0.0343,-0.0346,-0.0349,-0.0347,-0.0357,-0.036,-0.0371,-0.037,-0.04,-0.04,-0.0401,-0.0395,-0.0395,-0.0395,0,0,0,0,0,-0.0431,-0.043,-0.0433,-0.0429,-0.04,-0.0378,-0.0373,-0.0351,-0.0345,-0.0345,-0.0338,-0.0349,-0.0361,-0.0358,-0.0362,-0.0373,-0.04,-0.04,-0.0401,-0.0395,-0.0395,-0.0395,0,0,0,0,0,0,-0.0437,-0.0427,-0.0429,-0.0423,-0.041,-0.0374,-0.0368,-0.0356,-0.0348,-0.0351,-0.0347,-0.0349,-0.0359,-0.0368,-0.0364,-0.0383,-0.0384,-0.0385,-0.0378,-0.0378,-0.0378,-0.0388,-0.0371,0,0,0,0,0,-0.0447,-0.0449,-0.0433,-0.0428,-0.0427,-0.0402,-0.0392,-0.038,-0.0365,-0.0361,-0.036,-0.0362,-0.0362,-0.0371,-0.0373,-0.0388,-0.0401,-0.0399,-0.0399,-0.0399,-0.0409,-0.0436,-0.044,-0.0402,-0.0402,-0.0402,0,0,-0.0442,-0.0441,-0.0438,-0.0432,-0.042,-0.0407,-0.0396,-0.0385,-0.0376,-0.037,-0.0364,-0.0362,-0.0364,-0.0369,-0.0376,-0.038,-0.0412,-0.0399,-0.0399,-0.0409,-0.0437,-0.0441,-0.0444,-0.0402,-0.0402,-0.0402,0,0,-0.0424,-0.0443,-0.0433,-0.0432,-0.0424,-0.0416,-0.0418,-0.0395,-0.0393,-0.0388,-0.0376,-0.038,-0.0385,-0.0382,-0.0382,-0.0388,-0.0407,-0.0393,-0.0407,-0.0433,-0.0437,-0.044,-0.0445,-0.0449,-0.0398,-0.0398,-0.0398,0,-0.0412,-0.0407,-0.0425,-0.0417,-0.0407,-0.0422,-0.0401,-0.0407,-0.0389,-0.0383,-0.0392,-0.038,-0.0391,-0.0385,-0.039,-0.039,-0.0402,-0.0405,-0.0434,-0.0438,-0.0441,-0.0445,-0.045,-0.0398,-0.0398,-0.0398,-0.0398,0,-0.0384,-0.0385,-0.0381,-0.0381,-0.0381,-0.037,-0.0381,-0.0387,-0.0393,-0.0387,-0.0389,-0.0397,-0.0387,-0.0397,-0.04,-0.0423,-0.0421,-0.0426,-0.0435,-0.0445,-0.0448,-0.0453,-0.0398,-0.0398,-0.0398,-0.0398,0,0,-0.0318,-0.0351,-0.0344,-0.0339,-0.036,-0.0343,-0.0361,-0.0356,-0.0338,-0.0371,-0.0344,-0.0378,-0.0386,-0.0389,-0.0394,-0.0432,-0.0468,-0.0449,-0.0451,-0.0455,-0.0516,-0.049,-0.0492,-0.0483,-0.0484,-0.0485,-0.0502,0,-0.0275,-0.0257,-0.0285,-0.026,-0.0249,-0.0283,-0.028,-0.0292,-0.0305,-0.0293,-0.034,-0.0321,-0.0383,-0.0364,-0.0422,-0.0436,-0.0484,-0.0463,-0.0506,-0.0507,-0.0484,-0.0499,-0.0475,-0.0487,-0.0506,-0.0507,-0.0508,0,-0.0219,-0.0217,-0.0189,-0.0191,-0.0185,-0.0174,-0.0163,-0.0163,-0.0186,-0.0192,-0.0224,-0.0251,-0.03,-0.0348,-0.044,-0.0424,-0.0486,-0.052,-0.0521,-0.0507,-0.0491,-0.0484,-0.0495,-0.0516,-0.0515,-0.0515,-0.0514,0,-0.0143,-0.014,-0.0115,-0.0117,-0.0127,-0.0111,-0.0108,-0.0121,-0.0096,-0.012,-0.0096,-0.018,-0.0174,-0.0298,-0.0394,-0.0419,-0.0485,-0.0517,-0.0558,-0.0555,-0.0549,-0.0544,-0.0608,-0.0608,-0.0608,-0.0608,-0.0608,0,-0.0079,-0.0053,-0.0074,-0.0056,-0.0002,-0.0035,0.0027,0.0015,0.0025,0.0079,-0.0031,0.0002,-0.0167,-0.0228,-0.0361,-0.0458,-0.0463,-0.0566,-0.0565,-0.0543,-0.0538,-0.0578,-0.0574,-0.0609,-0.0609,-0.0609,-0.0609,0,0.0002,-0.002,0.0018,0.0022,0.0034,0.0079,0.0124,0.0172,0.016,0.0229,0.0227,0.0156,0.0076,-0.0088,-0.0235,-0.0366,-0.0485,-0.0522,-0.0473,-0.0468,-0.0552,-0.0547,-0.0585,-0.0585,-0.0584,-0.0584,-0.0584,0,0.0041,0.0065,0.0094,0.0131,0.014,0.0197,0.0247,0.0249,0.0304,0.0337,0.0385,0.0326,0.0301,0.009,-0.0147,-0.0363,-0.0418,-0.0481,-0.0546,-0.0558,-0.0553,-0.055,-0.0546,-0.0529,-0.0528,-0.0527,-0.0527,0,0.0125,0.0133,0.0163,0.0237,0.0297,0.037,0.0436,0.0499,0.0521,0.0578,0.0647,0.0629,0.0424,0.0206,-0.0094,-0.0245,-0.0454,-0.0474,-0.0498,-0.0533,-0.0505,-0.05,-0.0498,-0.0521,-0.0522,-0.0522,-0.0522,-0.0523,0.0191,0.0237,0.0275,0.0351,0.0425,0.053,0.0612,0.0697,0.0803,0.0868,0.083,0.0778,0.0499,0.0101,-0.011,-0.0352,-0.0387,-0.0507,-0.051,-0.0513,-0.0498,-0.047,-0.0476,-0.0476,-0.0477,-0.0477,-0.0477,0,0.0262,0.0309,0.0387,0.0476,0.0578,0.0595,0.0732,0.0828,0.0984,0.0971,0.1003,0.0704,0.0458,0.0168,-0.0186,-0.0402,-0.0427,-0.0456,-0.0463,-0.0468,-0.0472,-0.0456,-0.0423,-0.0423,-0.0423,-0.0423,0,0,0.0303,0.0381,0.0419,0.0587,0.0662,0.0808,0.0896,0.1052,0.1089,0.1075,0.0974,0.0817,0.0465,0.0207,-0.0068,-0.0235,-0.0292,-0.0258,-0.0286,-0.0266,-0.0267,-0.0494,-0.0473,0,0,0,0,0]}],[{"header":{"parameterUnit":"m.s-1","parameterCategory":2,"la1":30.2991,"la2":30.254,"lo1":-89.0895,"lo2":-89.0444,"dy":0.0017,"dx":0.0017,"nx":28,"ny":28,"refTime":"2023-10-10T09:00:00:Z","depth":"4","parameterNumber":2,"parameterNumberName":"U-component_of_CURRENTS"},"data":[0,0,0,0,0,0,0,0,0,0,0,0,0,0,0,0,0,0,0,0,0,0,0,0,0,0,0,0,0,0,0,0,0,0,0,0,0,0,0,0,0,0,0,0,0,0,0,0,0,0,0,0,0,0,0,0,0,0,0.0475,0.0476,0,0.0501,0.0502,0.0502,0.0526,0.0526,0.0527,0.0527,0.0635,0.0638,0.064,0,0,0,0,0,0,0,0,0,0,0,0,0,0.0441,0.0442,0.0475,0.0476,0.0476,0.0501,0.0502,0.0502,0.0526,0.0526,0.0527,0.0527,0.0634,0.0637,0.064,0,0,0,0,0,0,0,0,0,0,0,0,0,0.046,0.0442,0.0475,0.0491,0.0493,0.0501,0.0502,0.0502,0.0526,0.0526,0.0527,0.0527,0.0633,0.0637,0.0641,0.0656,0,0,0.0653,0.0654,0,0,0,0,0,0,0,0,0.0459,0.0461,0.0488,0.049,0.0492,0.0511,0.0529,0.0558,0.0526,0.0513,0.0527,0.0527,0.0601,0.0608,0.061,0.0661,0.0665,0.0653,0.0656,0.0657,0.0658,0,0,0,0,0,0,0,0.0458,0.046,0.0485,0.0489,0.0491,0.0495,0.0499,0.0534,0.0555,0.0514,0.0516,0.0519,0.0603,0.0606,0.0613,0.0667,0.0653,0.0656,0.0659,0.066,0.0816,0.0818,0,0,0,0,0,0,0.0455,0.0459,0.0485,0.0486,0.0477,0.0496,0.0499,0.0504,0.0553,0.0561,0.0519,0.052,0.0599,0.0608,0.0617,0.0712,0.0657,0.0661,0.0663,0.0814,0.0816,0.0818,0,0,0,0,0,0,0.0454,0.0457,0.0483,0.0473,0.0477,0.0496,0.0501,0.0505,0.0538,0.0556,0.0565,0.0552,0.06,0.0612,0.0638,0.0713,0.0663,0.0666,0.0812,0.0815,0.0817,0.0854,0,0,0,0,0,0,0.0453,0.0456,0.0464,0.0473,0.0478,0.0501,0.0501,0.0505,0.0538,0.0541,0.0588,0.0596,0.0601,0.0631,0.0641,0.0718,0.0669,0.081,0.0813,0.0816,0.085,0.0857,0.0863,0,0,0,0,0,0.0452,0.0451,0.0465,0.0468,0.0486,0.0502,0.0505,0.0519,0.0539,0.0553,0.0563,0.0596,0.0662,0.0634,0.0646,0.0726,0.0808,0.0812,0.0816,0.0847,0.0856,0.0863,0,0,0,0,0,0,0.0427,0.0454,0.0469,0.0474,0.0496,0.0507,0.0516,0.054,0.056,0.0565,0.0591,0.0599,0.0663,0.0678,0.0647,0.0781,0.0754,0.076,0.0774,0.0782,0.0789,0.0769,0.0672,0,0,0,0,0,0.0429,0.0449,0.0469,0.0478,0.0488,0.0514,0.0526,0.054,0.0556,0.0568,0.0604,0.0643,0.0686,0.0716,0.0748,0.0805,0.0786,0.0873,0.088,0.0885,0.0878,0.0876,0.0881,0.0832,0.0832,0.0831,0,0,0.043,0.0441,0.0457,0.0478,0.0494,0.0512,0.0523,0.0545,0.0571,0.0577,0.0627,0.0665,0.0703,0.0762,0.0798,0.0787,0.0893,0.089,0.0895,0.0884,0.0881,0.0885,0.0889,0.0834,0.0834,0.0833,0,0,0.0424,0.0445,0.0458,0.0476,0.0502,0.0521,0.0539,0.0571,0.0595,0.0632,0.0659,0.0711,0.0784,0.0817,0.0845,0.0907,0.0923,0.0965,0.0989,0.0989,0.0992,0.0994,0.098,0.0981,0.0973,0.0973,0.0973,0,0.0421,0.0441,0.0464,0.0473,0.049,0.0533,0.0549,0.0578,0.062,0.0649,0.0652,0.0772,0.0803,0.0883,0.0907,0.0924,0.0921,0.0954,0.0994,0.0996,0.0998,0.0983,0.0983,0.0975,0.0975,0.0975,0.0975,0,0.0413,0.0445,0.0451,0.0489,0.0506,0.0531,0.0566,0.0604,0.0649,0.0692,0.0781,0.0809,0.0889,0.0929,0.0934,0.1007,0.1,0.0996,0.0966,0.1005,0.0987,0.0987,0.0979,0.0978,0.0977,0.0977,0,0,0.0382,0.044,0.0448,0.0475,0.052,0.0534,0.0576,0.0635,0.0688,0.0747,0.0813,0.0896,0.0951,0.0984,0.1031,0.103,0.1043,0.103,0.1028,0.1,0.104,0.0973,0.0965,0.1053,0.1053,0.1053,0.1023,0,0.0382,0.0407,0.0436,0.0485,0.0507,0.0552,0.0608,0.0665,0.0716,0.079,0.0852,0.0947,0.0968,0.1032,0.1036,0.1049,0.1045,0.1051,0.1019,0.1018,0.094,0.0964,0.1054,0.1022,0.1022,0.1022,0.1022,0,0.0364,0.0393,0.0426,0.051,0.0526,0.0568,0.0647,0.0699,0.0802,0.0858,0.0943,0.1001,0.1068,0.1058,0.1078,0.1089,0.1071,0.105,0.1049,0.0968,0.0949,0.0977,0.1021,0.1021,0.1021,0.1021,0.1021,0,0.0325,0.0389,0.042,0.044,0.0534,0.0571,0.0638,0.0733,0.0799,0.0914,0.0977,0.1057,0.1113,0.1101,0.1087,0.1096,0.1056,0.1059,0.0972,0.0966,0.1018,0.1016,0.1039,0.1039,0.1039,0.1039,0.104,0,0.0308,0.0341,0.0416,0.0438,0.0515,0.0575,0.0669,0.075,0.0867,0.0934,0.1038,0.1076,0.1124,0.1114,0.1087,0.1026,0.1064,0.0968,0.0953,0.1037,0.1037,0.1018,0.1016,0.1038,0.1039,0.1039,0.1039,0,0.0262,0.0311,0.0358,0.0458,0.0501,0.0554,0.0703,0.0764,0.0898,0.0968,0.1019,0.1109,0.1095,0.1101,0.106,0.1025,0.0969,0.0932,0.1012,0.1004,0.088,0.0881,0.084,0.0837,0.0835,0.0833,0.0831,0,0.024,0.0259,0.0357,0.0395,0.0449,0.0548,0.0624,0.0777,0.0818,0.0948,0.0956,0.101,0.1037,0.0944,0.0951,0.0903,0.0886,0.0871,0.0884,0.0869,0.086,0.0864,0.0868,0.0828,0.0827,0.0826,0.0826,0,0.0207,0.0242,0.0281,0.0361,0.0434,0.0513,0.0611,0.0641,0.0768,0.0885,0.0894,0.0909,0.0882,0.0865,0.0848,0.0804,0.0894,0.0848,0.0852,0.0864,0.0854,0.0848,0.0854,0.0818,0.0819,0.082,0.082,0,0.0183,0.0198,0.0254,0.0317,0.0406,0.0453,0.0511,0.0559,0.0642,0.0762,0.0729,0.0783,0.0833,0.0809,0.0769,0.0752,0.0742,0.073,0.0741,0.075,0.0737,0.0713,0.0614,0,0,0,0,0,0.0161,0.0169,0.0213,0.0277,0.0356,0.0415,0.0493,0.0536,0.0617,0.06,0.0681,0.0651,0.0656,0.0681,0.0641,0.0709,0.0729,0.066,0.0717,0.0775,0.0784,0.0778,0,0,0,0,0,0,0.0145,0.0178,0.0188,0.0237,0.0271,0.0357,0.0402,0.0447,0.0444,0.0522,0.0522,0.0613,0.0614,0.0665,0.0629,0.0636,0.0658,0.07,0.0698,0.0769,0.0778,0.0785,0.0782,0,0,0,0,0]},{"header":{"parameterUnit":"m.s-1","parameterCategory":2,"la1":30.2991,"la2":30.254,"lo1":-89.0895,"lo2":-89.0444,"dy":0.0017,"dx":0.0017,"nx":28,"ny":28,"refTime":"2023-10-10T09:00:00:Z","depth":"4","parameterNumber":3,"parameterNumberName":"V-component_of_CURRENTS"},"data":[0,0,0,0,0,0,0,0,0,0,0,0,0,0,0,0,0,0,0,0,0,0,0,0,0,0,0,0,0,0,0,0,0,0,0,0,0,0,0,0,0,0,0,0,0,0,0,0,0,0,0,0,0,0,0,0,0,0,0.0169,0.0169,0,0.0149,0.0149,0.0148,0.0171,0.0172,0.0173,0.0174,0.0148,0.0147,0.0145,0,0,0,0,0,0,0,0,0,0,0,0,0,0.0178,0.0178,0.0169,0.0169,0.0168,0.0149,0.0149,0.0148,0.0171,0.0172,0.0173,0.0174,0.0149,0.0147,0.0145,0,0,0,0,0,0,0,0,0,0,0,0,0,0.0167,0.0178,0.0169,0.0178,0.0179,0.0149,0.0149,0.0148,0.017,0.0172,0.0173,0.0175,0.0149,0.0147,0.0145,0.0103,0,0,0.0138,0.0137,0,0,0,0,0,0,0,0,0.0167,0.0166,0.0177,0.0177,0.0178,0.0164,0.0142,0.0133,0.017,0.0173,0.0174,0.0175,0.0152,0.015,0.0142,0.0102,0.0101,0.0138,0.0136,0.0135,0.0134,0,0,0,0,0,0,0,0.0168,0.0167,0.016,0.0176,0.0177,0.0166,0.0167,0.014,0.0154,0.0173,0.0174,0.0173,0.0153,0.0144,0.0142,0.01,0.0138,0.0136,0.0134,0.0133,-0.0024,-0.0027,0,0,0,0,0,0,0.0173,0.0168,0.0161,0.016,0.0177,0.0165,0.0166,0.0167,0.0155,0.0155,0.0172,0.0174,0.0148,0.0144,0.0141,0.0077,0.0135,0.0133,0.0132,-0.0022,-0.0025,-0.0028,0,0,0,0,0,0,0.0173,0.0173,0.0162,0.0164,0.0162,0.0164,0.0165,0.0166,0.0165,0.0154,0.0154,0.0172,0.0149,0.0144,0.0132,0.0077,0.0132,0.013,-0.0018,-0.0023,-0.0027,-0.0043,0,0,0,0,0,0,0.0174,0.0173,0.0176,0.0164,0.0162,0.0146,0.0164,0.0164,0.0162,0.0165,0.0153,0.0152,0.0149,0.0135,0.0129,0.0075,0.0128,-0.0015,-0.002,-0.0025,-0.0039,-0.0047,-0.0054,0,0,0,0,0,0.0174,0.0174,0.0176,0.0175,0.0166,0.0146,0.0143,0.0149,0.016,0.0154,0.0157,0.0153,0.0095,0.0133,0.0126,0.0069,-0.0012,-0.0019,-0.0025,-0.0035,-0.0045,-0.0054,0,0,0,0,0,0,0.0178,0.0176,0.0178,0.0178,0.0163,0.015,0.0146,0.0146,0.0141,0.0148,0.0145,0.0143,0.0099,0.0085,0.0126,0.0001,0.0028,0.002,0.0022,0.0013,0.0005,0.0045,0.0126,0,0,0,0,0,0.0179,0.018,0.0169,0.0166,0.0161,0.0152,0.0146,0.0146,0.0139,0.0139,0.0127,0.0101,0.0061,0.0047,0.0013,-0.0035,-0.0026,-0.0089,-0.0097,-0.0103,-0.008,-0.0116,-0.0123,-0.0049,-0.0049,-0.0049,0,0,0.0181,0.0177,0.0179,0.0167,0.0158,0.0151,0.0152,0.014,0.0134,0.0134,0.012,0.0081,0.0043,-0.0013,-0.0038,-0.0024,-0.0123,-0.0111,-0.0115,-0.0088,-0.0123,-0.0129,-0.0135,-0.0053,-0.0052,-0.0052,0,0,0.0181,0.0179,0.0182,0.017,0.0156,0.0147,0.0145,0.0125,0.012,0.0098,0.0079,0.0031,-0.0022,-0.0061,-0.0088,-0.0159,-0.016,-0.0208,-0.0211,-0.0247,-0.0252,-0.0256,-0.025,-0.0254,-0.0213,-0.0213,-0.0213,0,0.0185,0.0188,0.0176,0.0172,0.0169,0.0148,0.0148,0.013,0.0107,0.0095,0.0095,-0.0005,-0.0041,-0.011,-0.0147,-0.0173,-0.018,-0.0165,-0.0252,-0.0256,-0.026,-0.0253,-0.0256,-0.0215,-0.0215,-0.0214,-0.0214,0,0.019,0.019,0.0186,0.0181,0.0171,0.0161,0.0141,0.0122,0.0108,0.0084,0.0018,-0.0033,-0.0091,-0.0145,-0.0162,-0.0242,-0.0232,-0.0251,-0.0213,-0.0267,-0.0258,-0.0261,-0.0217,-0.0216,-0.0216,-0.0216,0,0,0.0206,0.0196,0.0196,0.0195,0.0177,0.0167,0.0153,0.0127,0.0116,0.0062,0.0039,-0.0066,-0.0107,-0.0141,-0.0202,-0.0242,-0.0288,-0.0263,-0.0264,-0.0228,-0.0342,-0.0326,-0.0327,-0.0328,-0.0329,-0.033,-0.0322,0,0.0216,0.0216,0.0211,0.0207,0.0204,0.0185,0.0172,0.0143,0.0113,0.0079,0.0005,-0.0054,-0.0106,-0.0153,-0.0203,-0.0269,-0.0299,-0.0286,-0.0319,-0.0319,-0.0275,-0.0332,-0.0333,-0.0324,-0.0325,-0.0325,-0.0325,0,0.0225,0.0224,0.023,0.022,0.0218,0.0212,0.0193,0.0176,0.0123,0.0093,0.0027,-0.0027,-0.0113,-0.0145,-0.0248,-0.0242,-0.0289,-0.0327,-0.0329,-0.0301,-0.0309,-0.0265,-0.0331,-0.033,-0.033,-0.033,-0.0329,0,0.0236,0.0235,0.0243,0.0239,0.0226,0.0225,0.0213,0.0175,0.016,0.0093,0.0069,-0.0024,-0.0078,-0.0152,-0.0243,-0.0255,-0.0326,-0.035,-0.0365,-0.0363,-0.0366,-0.0361,-0.0404,-0.0404,-0.0404,-0.0404,-0.0404,0,0.024,0.0241,0.0247,0.0248,0.0252,0.0235,0.0227,0.0201,0.0166,0.0145,0.0064,0.0028,-0.0088,-0.0146,-0.022,-0.0295,-0.0311,-0.0357,-0.0368,-0.0376,-0.0373,-0.0367,-0.0363,-0.0403,-0.0403,-0.0403,-0.0404,0,0.0232,0.024,0.0246,0.0251,0.0255,0.0249,0.0241,0.0231,0.019,0.0166,0.0141,0.006,-0.0025,-0.0112,-0.022,-0.0265,-0.0337,-0.0357,-0.0324,-0.0334,-0.0346,-0.0344,-0.0365,-0.0365,-0.0364,-0.0364,-0.0364,0,0.0221,0.0229,0.0253,0.026,0.0261,0.0258,0.0261,0.0238,0.0233,0.0186,0.0179,0.0097,0.0034,-0.0091,-0.0187,-0.0295,-0.0323,-0.0337,-0.0375,-0.0338,-0.0347,-0.0345,-0.0343,-0.0363,-0.0363,-0.0363,-0.0363,0,0.0206,0.0223,0.0232,0.0256,0.0269,0.0279,0.0283,0.028,0.0259,0.024,0.019,0.0111,0.0031,-0.0081,-0.0163,-0.0248,-0.0318,-0.0333,-0.0335,-0.0371,-0.0336,-0.0344,-0.0343,-0.0361,-0.0362,-0.0362,-0.0362,0,0.0196,0.0201,0.0228,0.0241,0.0267,0.0283,0.0284,0.028,0.0272,0.0233,0.0226,0.012,0.0069,-0.0054,-0.013,-0.0211,-0.024,-0.0263,-0.0269,-0.0271,-0.0258,-0.0201,-0.0191,0,0,0,0,0,0.018,0.0189,0.0208,0.0227,0.0256,0.0272,0.0297,0.0298,0.0296,0.0267,0.0242,0.0164,0.0033,-0.0027,-0.0107,-0.0128,-0.0251,-0.0221,-0.0281,-0.0354,-0.0355,-0.0357,0,0,0,0,0,0,0.017,0.0189,0.0201,0.0219,0.0228,0.0261,0.0275,0.0277,0.0258,0.0245,0.0171,0.0151,0.0018,0.0068,-0.0111,-0.0133,-0.0178,-0.0279,-0.028,-0.0353,-0.0354,-0.0356,-0.0358,0,0,0,0,0]}]]